"Sample Date","Sample Time","Sample Value","Units","Flow Rate","Sample Interval","Number Channels","Micron Size 0","Counts/Channel 0","Micron Size 1","Counts/Channel 1","Micron Size 2","Counts/Channel 2","Micron Size 3","Counts/Channel 3","Micron Size 4","Counts/Channel 4","Micron Size 5","Counts/Channel 5","Micron Size 6","Counts/Channel 6","Micron Size 7","Counts/Channel 7","Micron Size 8","Counts/Channel 8","Micron Size 9","Counts/Channel 9","Micron Size 10","Counts/Channel 10","Micron Size 11","Counts/Channel 11","Micron Size 12","Counts/Channel 12","Micron Size 13","Counts/Channel 13","Micron Size 14","Counts/Channel 14","Micron Size 15","Counts/Channel 15","Micron Size 16","Counts/Channel 16","Micron Size 17","Counts/Channel 17","Micron Size 18","Counts/Channel 18","Micron Size 19","Counts/Channel 19","Micron Size 20","Counts/Channel 20","Micron Size 21","Counts/Channel 21","Micron Size 22","Counts/Channel 22","Micron Size 23","Counts/Channel 23","Micron Size 24","Counts/Channel 24","Micron Size 25","Counts/Channel 25","Micron Size 26","Counts/Channel 26","Micron Size 27","Counts/Channel 27","Micron Size 28","Counts/Channel 28","Micron Size 29","Counts/Channel 29","Micron Size 30","Counts/Channel 30","Micron Size 31","Counts/Channel 31"
"03/10/08","04:00:05",14145.000,"cc",28292.119,6.00,6,0.100,9557.000,0.200,1557.000,0.300,1253.000,0.500,1295.000,1.000,483.000,5.000,0
"03/10/08","04:00:11",14123.000,"cc",28391.227,6.00,6,0.100,9539.000,0.200,1451.000,0.300,1232.000,0.500,1382.000,1.000,519.000,5.000,0
"03/10/08","04:00:17",14157.000,"cc",28330.570,6.00,6,0.100,9532.000,0.200,1563.000,0.300,1302.000,0.500,1284.000,1.000,476.000,5.000,0
"03/10/08","04:00:23",13845.000,"cc",28317.367,6.00,6,0.100,9379.000,0.200,1529.000,0.300,1185.000,0.500,1313.000,1.000,439.000,5.000,0
"03/10/08","04:00:29",14533.000,"cc",28424.023,6.00,6,0.100,9625.000,0.200,1586.000,0.300,1320.000,0.500,1464.000,1.000,538.000,5.000,0
"03/10/08","04:00:35",14415.000,"cc",28253.320,6.00,6,0.100,9681.000,0.200,1613.000,0.300,1268.000,0.500,1379.000,1.000,474.000,5.000,0
"03/10/08","04:00:41",14137.000,"cc",28238.533,6.00,6,0.100,9421.000,0.200,1566.000,0.300,1238.000,0.500,1404.000,1.000,508.000,5.000,0
"03/10/08","04:00:47",14182.000,"cc",28230.981,6.00,6,0.100,9481.000,0.200,1564.000,0.300,1258.000,0.500,1364.000,1.000,515.000,5.000,0
"03/10/08","04:00:53",14110.000,"cc",28341.088,6.00,6,0.100,9526.000,0.200,1574.000,0.300,1220.000,0.500,1326.000,1.000,464.000,5.000,0
"03/10/08","04:00:59",13754.000,"cc",28394.234,6.00,6,0.100,9252.000,0.200,1544.000,0.300,1247.000,0.500,1236.000,1.000,475.000,5.000,0
"03/10/08","04:01:05",13439.000,"cc",28332.234,6.00,6,0.100,9154.000,0.200,1454.000,0.300,1214.000,0.500,1187.000,1.000,430.000,5.000,0
"03/10/08","04:01:11",13634.000,"cc",28362.084,6.00,6,0.100,9235.000,0.200,1500.000,0.300,1202.000,0.500,1246.000,1.000,451.000,5.000,0
"03/10/08","04:01:17",13752.000,"cc",28279.772,6.00,6,0.100,9269.000,0.200,1558.000,0.300,1228.000,0.500,1250.000,1.000,447.000,5.000,0
"03/10/08","04:01:23",14012.000,"cc",28278.211,6.00,6,0.100,9384.000,0.200,1593.000,0.300,1248.000,0.500,1315.000,1.000,472.000,5.000,0
"03/10/08","04:01:29",13874.000,"cc",28281.914,6.00,6,0.100,9377.000,0.200,1538.000,0.300,1193.000,0.500,1289.000,1.000,477.000,5.000,0
"03/10/08","04:01:35",13312.000,"cc",28350.563,6.00,6,0.100,9082.000,0.200,1420.000,0.300,1111.000,0.500,1230.000,1.000,469.000,5.000,0
"03/10/08","04:01:41",12976.000,"cc",28357.020,6.00,6,0.100,8765.000,0.200,1441.000,0.300,1117.000,0.500,1233.000,1.000,420.000,5.000,0
"03/10/08","04:01:47",13660.000,"cc",28310.045,6.00,6,0.100,9328.000,0.200,1490.000,0.300,1131.000,0.500,1227.000,1.000,484.000,5.000,0
"03/10/08","04:01:53",13509.000,"cc",28273.740,6.00,6,0.100,9149.000,0.200,1486.000,0.300,1159.000,0.500,1224.000,1.000,491.000,5.000,0
"03/10/08","04:01:59",13713.000,"cc",28348.705,6.00,6,0.100,9262.000,0.200,1558.000,0.300,1181.000,0.500,1284.000,1.000,428.000,5.000,0
"03/10/08","04:02:05",13282.000,"cc",28334.736,6.00,6,0.100,9096.000,0.200,1453.000,0.300,1102.000,0.500,1229.000,1.000,402.000,5.000,0
"03/10/08","04:02:11",12476.000,"cc",28285.893,6.00,6,0.100,8578.000,0.200,1320.000,0.300,1086.000,0.500,1103.000,1.000,389.000,5.000,0
"03/10/08","04:02:17",12135.000,"cc",28389.023,6.00,6,0.100,8484.000,0.200,1307.000,0.300,915.000,0.500,1048.000,1.000,381.000,5.000,0
"03/10/08","04:02:23",12312.000,"cc",28279.682,6.00,6,0.100,8627.000,0.200,1353.000,0.300,964.000,0.500,991.000,1.000,377.000,5.000,0
"03/10/08","04:02:29",12547.000,"cc",28330.272,6.00,6,0.100,8754.000,0.200,1297.000,0.300,1017.000,0.500,1067.000,1.000,412.000,5.000,0
"03/10/08","04:02:35",12613.000,"cc",28283.492,6.00,6,0.100,8614.000,0.200,1439.000,0.300,1012.000,0.500,1122.000,1.000,426.000,5.000,0
"03/10/08","04:02:41",12756.000,"cc",28300.965,6.00,6,0.100,8839.000,0.200,1319.000,0.300,1096.000,0.500,1105.000,1.000,397.000,5.000,0
"03/10/08","04:02:47",12527.000,"cc",28297.254,6.00,6,0.100,8695.000,0.200,1325.000,0.300,999.000,0.500,1101.000,1.000,407.000,5.000,0
"03/10/08","04:02:53",12530.000,"cc",28301.025,6.00,6,0.100,8667.000,0.200,1305.000,0.300,985.000,0.500,1145.000,1.000,428.000,5.000,0
"03/10/08","04:02:59",11803.000,"cc",28402.242,6.00,6,0.100,8301.000,0.200,1199.000,0.300,927.000,0.500,1004.000,1.000,372.000,5.000,0
"03/10/08","04:03:05",11554.000,"cc",28299.330,6.00,6,0.100,8317.000,0.200,1125.000,0.300,897.000,0.500,889.000,1.000,326.000,5.000,0
"03/10/08","04:03:11",11515.000,"cc",28376.596,6.00,6,0.100,8239.000,0.200,1155.000,0.300,868.000,0.500,928.000,1.000,325.000,5.000,0
"03/10/08","04:03:17",11613.000,"cc",28346.580,6.00,6,0.100,8335.000,0.200,1162.000,0.300,894.000,0.500,911.000,1.000,311.000,5.000,0
"03/10/08","04:03:23",12375.000,"cc",28367.029,6.00,6,0.100,8669.000,0.200,1240.000,0.300,1006.000,0.500,1052.000,1.000,408.000,5.000,0
"03/10/08","04:03:29",12357.000,"cc",28295.131,6.00,6,0.100,8646.000,0.200,1326.000,0.300,961.000,0.500,1011.000,1.000,413.000,5.000,0
"03/10/08","04:03:35",12279.000,"cc",28190.018,6.00,6,0.100,8600.000,0.200,1323.000,0.300,931.000,0.500,1023.000,1.000,402.000,5.000,0
"03/10/08","04:03:41",11915.000,"cc",28305.486,6.00,6,0.100,8365.000,0.200,1242.000,0.300,951.000,0.500,986.000,1.000,371.000,5.000,0
"03/10/08","04:03:47",12223.000,"cc",28365.791,6.00,6,0.100,8533.000,0.200,1294.000,0.300,947.000,0.500,1060.000,1.000,389.000,5.000,0
"03/10/08","04:03:53",11954.000,"cc",28262.184,6.00,6,0.100,8292.000,0.200,1229.000,0.300,1021.000,0.500,1037.000,1.000,375.000,5.000,0
"03/10/08","04:03:59",12519.000,"cc",28256.951,6.00,6,0.100,8694.000,0.200,1309.000,0.300,1015.000,0.500,1108.000,1.000,393.000,5.000,0
"03/10/08","04:04:05",12338.000,"cc",28280.154,6.00,6,0.100,8645.000,0.200,1238.000,0.300,1031.000,0.500,1045.000,1.000,379.000,5.000,0
"03/10/08","04:04:11",12081.000,"cc",28455.281,6.00,6,0.100,8560.000,0.200,1278.000,0.300,935.000,0.500,940.000,1.000,368.000,5.000,0
"03/10/08","04:04:17",11901.000,"cc",28265.982,6.00,6,0.100,8290.000,0.200,1269.000,0.300,1013.000,0.500,952.000,1.000,377.000,5.000,0
"03/10/08","04:04:23",11649.000,"cc",28356.602,6.00,6,0.100,8150.000,0.200,1244.000,0.300,923.000,0.500,976.000,1.000,356.000,5.000,0
"03/10/08","04:04:29",11948.000,"cc",28338.387,6.00,6,0.100,8473.000,0.200,1243.000,0.300,872.000,0.500,1037.000,1.000,323.000,5.000,0
"03/10/08","04:04:35",11966.000,"cc",28285.484,6.00,6,0.100,8263.000,0.200,1252.000,0.300,1009.000,0.500,1056.000,1.000,386.000,5.000,0
"03/10/08","04:04:41",12123.000,"cc",28285.297,6.00,6,0.100,8501.000,0.200,1253.000,0.300,987.000,0.500,994.000,1.000,388.000,5.000,0
"03/10/08","04:04:47",11958.000,"cc",28397.451,6.00,6,0.100,8364.000,0.200,1384.000,0.300,894.000,0.500,976.000,1.000,340.000,5.000,0
"03/10/08","04:04:53",11969.000,"cc",28274.215,6.00,6,0.100,8346.000,0.200,1276.000,0.300,968.000,0.500,997.000,1.000,382.000,5.000,0
"03/10/08","04:04:59",12223.000,"cc",28365.922,6.00,6,0.100,8562.000,0.200,1246.000,0.300,1017.000,0.500,994.000,1.000,404.000,5.000,0
"03/10/08","04:05:05",12487.000,"cc",28334.037,6.00,6,0.100,8687.000,0.200,1304.000,0.300,1000.000,0.500,1068.000,1.000,428.000,5.000,0
"03/10/08","04:05:11",12754.000,"cc",28335.525,6.00,6,0.100,8683.000,0.200,1375.000,0.300,1074.000,0.500,1168.000,1.000,454.000,5.000,0
"03/10/08","04:05:17",12479.000,"cc",28264.301,6.00,6,0.100,8577.000,0.200,1327.000,0.300,1017.000,0.500,1148.000,1.000,410.000,5.000,0
"03/10/08","04:05:23",12515.000,"cc",28325.906,6.00,6,0.100,8672.000,0.200,1303.000,0.300,1014.000,0.500,1093.000,1.000,433.000,5.000,0
"03/10/08","04:05:29",12429.000,"cc",28359.936,6.00,6,0.100,8438.000,0.200,1390.000,0.300,1073.000,0.500,1129.000,1.000,398.000,5.000,1.000
"03/10/08","04:05:35",12591.000,"cc",28348.051,6.00,6,0.100,8619.000,0.200,1368.000,0.300,1057.000,0.500,1178.000,1.000,369.000,5.000,0
"03/10/08","04:05:41",12571.000,"cc",28300.414,6.00,6,0.100,8545.000,0.200,1333.000,0.300,1110.000,0.500,1145.000,1.000,438.000,5.000,0
"03/10/08","04:05:47",12774.000,"cc",28297.857,6.00,6,0.100,8769.000,0.200,1352.000,0.300,1063.000,0.500,1119.000,1.000,471.000,5.000,0
"03/10/08","04:05:53",12650.000,"cc",28303.063,6.00,6,0.100,8614.000,0.200,1361.000,0.300,1064.000,0.500,1144.000,1.000,467.000,5.000,0
"03/10/08","04:05:59",12879.000,"cc",28277.857,6.00,6,0.100,8681.000,0.200,1365.000,0.300,1185.000,0.500,1223.000,1.000,425.000,5.000,0
"03/10/08","04:06:05",13038.000,"cc",28303.852,6.00,6,0.100,8935.000,0.200,1341.000,0.300,1136.000,0.500,1182.000,1.000,443.000,5.000,1.000
"03/10/08","04:06:11",12743.000,"cc",28225.357,6.00,6,0.100,8707.000,0.200,1420.000,0.300,1065.000,0.500,1140.000,1.000,411.000,5.000,0
"03/10/08","04:06:17",13007.000,"cc",28352.744,6.00,6,0.100,8787.000,0.200,1454.000,0.300,1109.000,0.500,1214.000,1.000,443.000,5.000,0
"03/10/08","04:06:23",12731.000,"cc",28375.934,6.00,6,0.100,8590.000,0.200,1443.000,0.300,1062.000,0.500,1185.000,1.000,451.000,5.000,0
"03/10/08","04:06:29",13332.000,"cc",28243.672,6.00,6,0.100,9007.000,0.200,1454.000,0.300,1169.000,0.500,1228.000,1.000,474.000,5.000,0
"03/10/08","04:06:35",13210.000,"cc",28339.326,6.00,6,0.100,8911.000,0.200,1493.000,0.300,1134.000,0.500,1264.000,1.000,408.000,5.000,0
"03/10/08","04:06:41",13443.000,"cc",28334.721,6.00,6,0.100,9011.000,0.200,1495.000,0.300,1214.000,0.500,1241.000,1.000,482.000,5.000,0
"03/10/08","04:06:47",13314.000,"cc",28301.973,6.00,6,0.100,8927.000,0.200,1478.000,0.300,1160.000,0.500,1268.000,1.000,481.000,5.000,0
"03/10/08","04:06:53",13828.000,"cc",28307.291,6.00,6,0.100,9020.000,0.200,1624.000,0.300,1245.000,0.500,1428.000,1.000,511.000,5.000,0
"03/10/08","04:06:59",13743.000,"cc",28318.602,6.00,6,0.100,9086.000,0.200,1617.000,0.300,1215.000,0.500,1347.000,1.000,478.000,5.000,0
"03/10/08","04:07:05",13400.000,"cc",28351.578,6.00,6,0.100,8920.000,0.200,1442.000,0.300,1204.000,0.500,1316.000,1.000,518.000,5.000,0
"03/10/08","04:07:11",13398.000,"cc",28335.830,6.00,6,0.100,8948.000,0.200,1496.000,0.300,1198.000,0.500,1290.000,1.000,466.000,5.000,0
"03/10/08","04:07:17",13478.000,"cc",28346.990,6.00,6,0.100,8992.000,0.200,1528.000,0.300,1207.000,0.500,1281.000,1.000,470.000,5.000,0
"03/10/08","04:07:23",13692.000,"cc",28265.566,6.00,6,0.100,9014.000,0.200,1601.000,0.300,1298.000,0.500,1271.000,1.000,508.000,5.000,0
"03/10/08","04:07:29",13781.000,"cc",28280.811,6.00,6,0.100,9159.000,0.200,1664.000,0.300,1176.000,0.500,1292.000,1.000,490.000,5.000,0
"03/10/08","04:07:35",13788.000,"cc",28411.127,6.00,6,0.100,9218.000,0.200,1609.000,0.300,1238.000,0.500,1295.000,1.000,428.000,5.000,0
"03/10/08","04:07:41",13681.000,"cc",28294.932,6.00,6,0.100,9122.000,0.200,1548.000,0.300,1260.000,0.500,1257.000,1.000,494.000,5.000,0
"03/10/08","04:07:47",14171.000,"cc",28277.977,6.00,6,0.100,9293.000,0.200,1676.000,0.300,1258.000,0.500,1429.000,1.000,515.000,5.000,0
"03/10/08","04:07:53",13870.000,"cc",28269.613,6.00,6,0.100,9122.000,0.200,1605.000,0.300,1294.000,0.500,1327.000,1.000,522.000,5.000,0
"03/10/08","04:07:59",13780.000,"cc",28397.479,6.00,6,0.100,9168.000,0.200,1598.000,0.300,1212.000,0.500,1292.000,1.000,510.000,5.000,0
"03/10/08","04:08:05",13740.000,"cc",28306.289,6.00,6,0.100,9316.000,0.200,1522.000,0.300,1184.000,0.500,1263.000,1.000,455.000,5.000,0
"03/10/08","04:08:11",14060.000,"cc",28292.809,6.00,6,0.100,9239.000,0.200,1594.000,0.300,1353.000,0.500,1345.000,1.000,529.000,5.000,0
"03/10/08","04:08:17",13883.000,"cc",28281.131,6.00,6,0.100,9204.000,0.200,1540.000,0.300,1252.000,0.500,1412.000,1.000,475.000,5.000,0
"03/10/08","04:08:23",14159.000,"cc",28341.904,6.00,6,0.100,9413.000,0.200,1545.000,0.300,1303.000,0.500,1377.000,1.000,521.000,5.000,0
"03/10/08","04:08:29",14204.000,"cc",28341.797,6.00,6,0.100,9380.000,0.200,1640.000,0.300,1272.000,0.500,1365.000,1.000,547.000,5.000,0
"03/10/08","04:08:35",14294.000,"cc",28234.656,6.00,6,0.100,9366.000,0.200,1619.000,0.300,1329.000,0.500,1470.000,1.000,510.000,5.000,0
"03/10/08","04:08:41",14359.000,"cc",28327.563,6.00,6,0.100,9458.000,0.200,1650.000,0.300,1307.000,0.500,1406.000,1.000,538.000,5.000,0
"03/10/08","04:08:47",14425.000,"cc",28278.051,6.00,6,0.100,9458.000,0.200,1703.000,0.300,1375.000,0.500,1378.000,1.000,511.000,5.000,0
"03/10/08","04:08:53",14654.000,"cc",28328.119,6.00,6,0.100,9588.000,0.200,1678.000,0.300,1384.000,0.500,1467.000,1.000,537.000,5.000,0
"03/10/08","04:08:59",14606.000,"cc",28355.662,6.00,6,0.100,9576.000,0.200,1660.000,0.300,1358.000,0.500,1455.000,1.000,557.000,5.000,0
"03/10/08","04:09:05",14716.000,"cc",28299.391,6.00,6,0.100,9508.000,0.200,1698.000,0.300,1366.000,0.500,1562.000,1.000,582.000,5.000,0
"03/10/08","04:09:11",14779.000,"cc",28329.342,6.00,6,0.100,9530.000,0.200,1715.000,0.300,1443.000,0.500,1508.000,1.000,583.000,5.000,0
"03/10/08","04:09:17",14229.000,"cc",28388.033,6.00,6,0.100,9450.000,0.200,1598.000,0.300,1266.000,0.500,1455.000,1.000,460.000,5.000,0
"03/10/08","04:09:23",14373.000,"cc",28247.221,6.00,6,0.100,9488.000,0.200,1584.000,0.300,1314.000,0.500,1431.000,1.000,556.000,5.000,0
"03/10/08","04:09:29",14633.000,"cc",28317.940,6.00,6,0.100,9567.000,0.200,1672.000,0.300,1346.000,0.500,1470.000,1.000,578.000,5.000,0
"03/10/08","04:09:35",14621.000,"cc",28258.795,6.00,6,0.100,9552.000,0.200,1731.000,0.300,1331.000,0.500,1477.000,1.000,530.000,5.000,0
"03/10/08","04:09:41",14368.000,"cc",28348.533,6.00,6,0.100,9504.000,0.200,1549.000,0.300,1322.000,0.500,1426.000,1.000,567.000,5.000,0
"03/10/08","04:09:47",14160.000,"cc",28364.742,6.00,6,0.100,9433.000,0.200,1548.000,0.300,1282.000,0.500,1358.000,1.000,539.000,5.000,0
"03/10/08","04:09:53",13665.000,"cc",28323.190,6.00,6,0.100,9162.000,0.200,1492.000,0.300,1191.000,0.500,1338.000,1.000,482.000,5.000,0
"03/10/08","04:09:59",13860.000,"cc",28293.473,6.00,6,0.100,9312.000,0.200,1546.000,0.300,1206.000,0.500,1324.000,1.000,472.000,5.000,0
"03/10/08","04:10:05",13872.000,"cc",28275.912,6.00,6,0.100,9370.000,0.200,1444.000,0.300,1174.000,0.500,1347.000,1.000,537.000,5.000,0
"03/10/08","04:10:11",14032.000,"cc",28399.205,6.00,6,0.100,9329.000,0.200,1564.000,0.300,1298.000,0.500,1338.000,1.000,503.000,5.000,0
"03/10/08","04:10:17",14081.000,"cc",28302.615,6.00,6,0.100,9350.000,0.200,1564.000,0.300,1265.000,0.500,1379.000,1.000,523.000,5.000,0
"03/10/08","04:10:23",14059.000,"cc",28214.285,6.00,6,0.100,9475.000,0.200,1511.000,0.300,1268.000,0.500,1332.000,1.000,473.000,5.000,0
"03/10/08","04:10:29",14524.000,"cc",28343.803,6.00,6,0.100,9597.000,0.200,1659.000,0.300,1311.000,0.500,1456.000,1.000,501.000,5.000,0
"03/10/08","04:10:35",14306.000,"cc",28377.303,6.00,6,0.100,9385.000,0.200,1628.000,0.300,1350.000,0.500,1385.000,1.000,558.000,5.000,0
"03/10/08","04:10:41",13920.000,"cc",28280.406,6.00,6,0.100,9337.000,0.200,1547.000,0.300,1207.000,0.500,1354.000,1.000,475.000,5.000,0
"03/10/08","04:10:47",13953.000,"cc",28413.170,6.00,6,0.100,9105.000,0.200,1589.000,0.300,1331.000,0.500,1436.000,1.000,492.000,5.000,0
"03/10/08","04:10:53",14014.000,"cc",28261.436,6.00,6,0.100,9420.000,0.200,1536.000,0.300,1285.000,0.500,1280.000,1.000,493.000,5.000,0
"03/10/08","04:10:59",14079.000,"cc",28315.586,6.00,6,0.100,9444.000,0.200,1570.000,0.300,1173.000,0.500,1343.000,1.000,549.000,5.000,0
"03/10/08","04:11:05",13488.000,"cc",28338.246,6.00,6,0.100,9136.000,0.200,1469.000,0.300,1193.000,0.500,1235.000,1.000,455.000,5.000,0
"03/10/08","04:11:11",13570.000,"cc",28315.115,6.00,6,0.100,9040.000,0.200,1531.000,0.300,1212.000,0.500,1292.000,1.000,495.000,5.000,0
"03/10/08","04:11:17",14122.000,"cc",28302.158,6.00,6,0.100,9500.000,0.200,1525.000,0.300,1215.000,0.500,1361.000,1.000,521.000,5.000,0
"03/10/08","04:11:23",13836.000,"cc",28288.857,6.00,6,0.100,9304.000,0.200,1538.000,0.300,1239.000,0.500,1300.000,1.000,455.000,5.000,0
"03/10/08","04:11:29",13368.000,"cc",28341.570,6.00,6,0.100,9075.000,0.200,1463.000,0.300,1164.000,0.500,1219.000,1.000,447.000,5.000,0
"03/10/08","04:11:35",14244.000,"cc",28359.838,6.00,6,0.100,9378.000,0.200,1625.000,0.300,1287.000,0.500,1412.000,1.000,542.000,5.000,0
"03/10/08","04:11:41",14107.000,"cc",28319.539,6.00,6,0.100,9429.000,0.200,1560.000,0.300,1264.000,0.500,1370.000,1.000,484.000,5.000,0
"03/10/08","04:11:47",14351.000,"cc",28272.359,6.00,6,0.100,9471.000,0.200,1658.000,0.300,1310.000,0.500,1416.000,1.000,496.000,5.000,0
"03/10/08","04:11:53",14312.000,"cc",28253.379,6.00,6,0.100,9510.000,0.200,1650.000,0.300,1255.000,0.500,1384.000,1.000,513.000,5.000,0
"03/10/08","04:11:59",14355.000,"cc",28370.584,6.00,6,0.100,9568.000,0.200,1563.000,0.300,1275.000,0.500,1411.000,1.000,538.000,5.000,0
"03/10/08","04:12:05",14392.000,"cc",28310.691,6.00,6,0.100,9518.000,0.200,1683.000,0.300,1312.000,0.500,1367.000,1.000,512.000,5.000,0
"03/10/08","04:12:11",14044.000,"cc",28288.262,6.00,6,0.100,9277.000,0.200,1594.000,0.300,1260.000,0.500,1398.000,1.000,515.000,5.000,0
"03/10/08","04:12:17",14002.000,"cc",28334.910,6.00,6,0.100,9494.000,0.200,1512.000,0.300,1156.000,0.500,1318.000,1.000,522.000,5.000,0
"03/10/08","04:12:23",14323.000,"cc",28273.164,6.00,6,0.100,9538.000,0.200,1548.000,0.300,1302.000,0.500,1458.000,1.000,477.000,5.000,0
"03/10/08","04:12:29",14480.000,"cc",28346.322,6.00,6,0.100,9628.000,0.200,1606.000,0.300,1324.000,0.500,1431.000,1.000,491.000,5.000,0
"03/10/08","04:12:35",13771.000,"cc",28365.229,6.00,6,0.100,9280.000,0.200,1529.000,0.300,1137.000,0.500,1328.000,1.000,497.000,5.000,0
"03/10/08","04:12:41",13377.000,"cc",28351.059,6.00,6,0.100,9005.000,0.200,1455.000,0.300,1119.000,0.500,1304.000,1.000,494.000,5.000,0
"03/10/08","04:12:47",13123.000,"cc",28296.576,6.00,6,0.100,9005.000,0.200,1404.000,0.300,1097.000,0.500,1172.000,1.000,445.000,5.000,0
"03/10/08","04:12:53",13050.000,"cc",28335.420,6.00,6,0.100,8913.000,0.200,1405.000,0.300,1063.000,0.500,1206.000,1.000,463.000,5.000,0
"03/10/08","04:12:59",13334.000,"cc",28309.752,6.00,6,0.100,9092.000,0.200,1440.000,0.300,1082.000,0.500,1246.000,1.000,474.000,5.000,0
"03/10/08","04:13:05",13559.000,"cc",28313.523,6.00,6,0.100,9198.000,0.200,1457.000,0.300,1215.000,0.500,1226.000,1.000,463.000,5.000,0
"03/10/08","04:13:11",13751.000,"cc",28287.324,6.00,6,0.100,9235.000,0.200,1552.000,0.300,1174.000,0.500,1315.000,1.000,475.000,5.000,0
"03/10/08","04:13:17",13453.000,"cc",28363.369,6.00,6,0.100,9092.000,0.200,1477.000,0.300,1126.000,0.500,1277.000,1.000,481.000,5.000,0
"03/10/08","04:13:23",13562.000,"cc",28361.762,6.00,6,0.100,9110.000,0.200,1447.000,0.300,1214.000,0.500,1275.000,1.000,516.000,5.000,0
"03/10/08","04:13:29",13316.000,"cc",28254.637,6.00,6,0.100,9004.000,0.200,1456.000,0.300,1138.000,0.500,1261.000,1.000,457.000,5.000,0
"03/10/08","04:13:35",13277.000,"cc",28347.576,6.00,6,0.100,9063.000,0.200,1368.000,0.300,1132.000,0.500,1212.000,1.000,502.000,5.000,0
"03/10/08","04:13:41",13205.000,"cc",28325.479,6.00,6,0.100,8849.000,0.200,1540.000,0.300,1125.000,0.500,1157.000,1.000,534.000,5.000,0
"03/10/08","04:13:47",12808.000,"cc",28324.762,6.00,6,0.100,8820.000,0.200,1385.000,0.300,1041.000,0.500,1090.000,1.000,472.000,5.000,0
"03/10/08","04:13:53",13310.000,"cc",28280.635,6.00,6,0.100,8949.000,0.200,1454.000,0.300,1143.000,0.500,1296.000,1.000,468.000,5.000,0
"03/10/08","04:13:59",13492.000,"cc",28339.184,6.00,6,0.100,9102.000,0.200,1478.000,0.300,1158.000,0.500,1287.000,1.000,467.000,5.000,0
"03/10/08","04:14:05",13235.000,"cc",28324.285,6.00,6,0.100,9038.000,0.200,1406.000,0.300,1139.000,0.500,1229.000,1.000,423.000,5.000,0
"03/10/08","04:14:11",13424.000,"cc",28263.777,6.00,6,0.100,9106.000,0.200,1404.000,0.300,1177.000,0.500,1248.000,1.000,489.000,5.000,0
"03/10/08","04:14:17",13467.000,"cc",28345.092,6.00,6,0.100,9168.000,0.200,1448.000,0.300,1165.000,0.500,1227.000,1.000,459.000,5.000,0
"03/10/08","04:14:23",13460.000,"cc",28297.244,6.00,6,0.100,9116.000,0.200,1517.000,0.300,1113.000,0.500,1240.000,1.000,474.000,5.000,0
"03/10/08","04:14:29",13154.000,"cc",28313.463,6.00,6,0.100,8958.000,0.200,1409.000,0.300,1146.000,0.500,1178.000,1.000,463.000,5.000,0
"03/10/08","04:14:35",13203.000,"cc",28350.338,6.00,6,0.100,9094.000,0.200,1370.000,0.300,1125.000,0.500,1163.000,1.000,451.000,5.000,0
"03/10/08","04:14:41",13481.000,"cc",28325.641,6.00,6,0.100,9183.000,0.200,1463.000,0.300,1120.000,0.500,1262.000,1.000,453.000,5.000,0
"03/10/08","04:14:47",13598.000,"cc",28257.371,6.00,6,0.100,9218.000,0.200,1500.000,0.300,1135.000,0.500,1264.000,1.000,481.000,5.000,0
"03/10/08","04:14:53",13774.000,"cc",28327.068,6.00,6,0.100,9253.000,0.200,1535.000,0.300,1158.000,0.500,1297.000,1.000,531.000,5.000,0
"03/10/08","04:14:59",13430.000,"cc",28271.504,6.00,6,0.100,9114.000,0.200,1460.000,0.300,1151.000,0.500,1244.000,1.000,461.000,5.000,0
"03/10/08","04:15:05",13032.000,"cc",28339.752,6.00,6,0.100,8916.000,0.200,1394.000,0.300,1101.000,0.500,1205.000,1.000,416.000,5.000,0
"03/10/08","04:15:11",12933.000,"cc",28317.164,6.00,6,0.100,9020.000,0.200,1348.000,0.300,1057.000,0.500,1077.000,1.000,431.000,5.000,0
"03/10/08","04:15:17",13319.000,"cc",28287.080,6.00,6,0.100,9084.000,0.200,1449.000,0.300,1068.000,0.500,1278.000,1.000,440.000,5.000,0
"03/10/08","04:15:23",13226.000,"cc",28309.229,6.00,6,0.100,9006.000,0.200,1429.000,0.300,1122.000,0.500,1227.000,1.000,442.000,5.000,0
"03/10/08","04:15:29",13083.000,"cc",28328.111,6.00,6,0.100,8978.000,0.200,1405.000,0.300,1105.000,0.500,1183.000,1.000,412.000,5.000,0
"03/10/08","04:15:35",12951.000,"cc",28374.873,6.00,6,0.100,8902.000,0.200,1435.000,0.300,1067.000,0.500,1159.000,1.000,388.000,5.000,0
"03/10/08","04:15:41",13313.000,"cc",28279.272,6.00,6,0.100,9084.000,0.200,1431.000,0.300,1153.000,0.500,1182.000,1.000,463.000,5.000,0
"03/10/08","04:15:47",13045.000,"cc",28345.084,6.00,6,0.100,8824.000,0.200,1443.000,0.300,1112.000,0.500,1196.000,1.000,470.000,5.000,0
"03/10/08","04:15:53",13177.000,"cc",28312.324,6.00,6,0.100,8905.000,0.200,1414.000,0.300,1179.000,0.500,1220.000,1.000,459.000,5.000,0
"03/10/08","04:15:59",13092.000,"cc",28324.287,6.00,6,0.100,8893.000,0.200,1421.000,0.300,1132.000,0.500,1224.000,1.000,422.000,5.000,0
"03/10/08","04:16:05",13428.000,"cc",28328.348,6.00,6,0.100,9094.000,0.200,1506.000,0.300,1175.000,0.500,1206.000,1.000,447.000,5.000,0
"03/10/08","04:16:11",13638.000,"cc",28269.619,6.00,6,0.100,9259.000,0.200,1477.000,0.300,1199.000,0.500,1229.000,1.000,474.000,5.000,0
"03/10/08","04:16:17",13439.000,"cc",28320.244,6.00,6,0.100,9032.000,0.200,1529.000,0.300,1151.000,0.500,1270.000,1.000,457.000,5.000,0
"03/10/08","04:16:23",13279.000,"cc",28391.357,6.00,6,0.100,9112.000,0.200,1369.000,0.300,1117.000,0.500,1203.000,1.000,478.000,5.000,0
"03/10/08","04:16:29",13295.000,"cc",28308.356,6.00,6,0.100,9091.000,0.200,1442.000,0.300,1072.000,0.500,1215.000,1.000,475.000,5.000,0
"03/10/08","04:16:35",13070.000,"cc",28328.424,6.00,6,0.100,8999.000,0.200,1441.000,0.300,1119.000,0.500,1088.000,1.000,423.000,5.000,0